When you browse on this site, cookies collect data to enhance your experience and personalize the content and advertising you see.
Visit our Privacy Policy to learn more. By continuing to use the site, you agree to this use of cookies and data.
  • In United Kingdom
  • List of Countries
  • For 7 days
  • Water Temperature
  • Satellite Maps
  • Weather Map
  • Weather Widgets
  • user-avatar
    Login

    Hourly Weather Macapa

    Today, 21 November, Wednesday

    Time Temperature Precipitation Wind Pressure Humidity
    00:00 +28°C° 0 mm 3 mps 757 mmHg 80%
    01:00 +28°C° 0.1 mm 3 mps 757 mmHg 83%
    02:00 +28°C° 0.1 mm 3 mps 757 mmHg 85%
    03:00 +27°C° 0 mm 3 mps 757 mmHg 88%
    04:00 +27°C° 0.2 mm 3 mps 757 mmHg 90%
    05:00 +27°C° 0.2 mm 2 mps 757 mmHg 92%
    06:00 +26°C° 0.2 mm 2 mps 757 mmHg 94%
    07:00 +28°C° 0.1 mm 2 mps 758 mmHg 85%
    08:00 +30°C° 0.1 mm 3 mps 758 mmHg 76%
    09:00 +33°C° 0.1 mm 3 mps 759 mmHg 68%
    10:00 +34°C° 0.4 mm 3 mps 758 mmHg 62%
    11:00 +36°C° 0.4 mm 3 mps 758 mmHg 56%
    12:00 +37°C° 0.4 mm 3 mps 758 mmHg 50%
    13:00 +37°C° 0.2 mm 3 mps 757 mmHg 48%
    14:00 +37°C° 0.2 mm 3 mps 756 mmHg 46%
    15:00 +37°C° 0.2 mm 4 mps 756 mmHg 45%
    16:00 +36°C° 0 mm 4 mps 756 mmHg 49%
    17:00 +35°C° 0 mm 4 mps 756 mmHg 54%
    18:00 +33°C° 0 mm 4 mps 756 mmHg 58%
    19:00 +32°C° 0.1 mm 4 mps 756 mmHg 65%
    20:00 +30°C° 0.1 mm 4 mps 757 mmHg 71%
    21:00 +29°C° 0.1 mm 3 mps 757 mmHg 78%
    22:00 +28°C° 0 mm 3 mps 757 mmHg 81%
    23:00 +28°C° 0 mm 3 mps 757 mmHg 83%

    Tomorrow, 22 November, Thursday

    Time Temperature Precipitation Wind Pressure Humidity
    00:00 +27°C° 0 mm 3 mps 757 mmHg 86%
    01:00 +27°C° 0 mm 3 mps 757 mmHg 88%
    02:00 +27°C° 0 mm 2 mps 757 mmHg 90%
    03:00 +27°C° 0 mm 2 mps 756 mmHg 92%
    04:00 +26°C° 0 mm 2 mps 756 mmHg 93%
    05:00 +26°C° 0 mm 2 mps 757 mmHg 94%
    06:00 +26°C° 0 mm 2 mps 757 mmHg 95%
    07:00 +28°C° 0 mm 2 mps 757 mmHg 85%
    08:00 +30°C° 0 mm 3 mps 758 mmHg 75%
    09:00 +33°C° 0 mm 3 mps 758 mmHg 66%
    10:00 +34°C° 0 mm 3 mps 758 mmHg 57%
    11:00 +36°C° 0 mm 3 mps 758 mmHg 49%
    12:00 +38°C° 0 mm 3 mps 757 mmHg 41%
    13:00 +38°C° 0 mm 4 mps 756 mmHg 40%
    14:00 +38°C° 0 mm 4 mps 755 mmHg 39%
    15:00 +38°C° 0 mm 4 mps 755 mmHg 38%
    16:00 +37°C° 0 mm 4 mps 755 mmHg 42%
    17:00 +35°C° 0 mm 4 mps 755 mmHg 47%
    18:00 +34°C° 0 mm 4 mps 755 mmHg 52%
    19:00 +33°C° 0 mm 4 mps 755 mmHg 58%
    20:00 +32°C° 0 mm 4 mps 756 mmHg 64%
    21:00 +30°C° 0 mm 4 mps 757 mmHg 71%
    22:00 +29°C° 0 mm 4 mps 757 mmHg 74%
    23:00 +29°C° 0 mm 3 mps 757 mmHg 78%

    Day after tomorrow, 23 November, Friday

    Time Temperature Precipitation Wind Pressure Humidity
    00:00 +28°C° 0 mm 3 mps 757 mmHg 81%
    01:00 +28°C° 0.1 mm 3 mps 757 mmHg 84%
    02:00 +27°C° 0.1 mm 3 mps 756 mmHg 86%
    03:00 +27°C° 0.1 mm 2 mps 756 mmHg 88%
    04:00 +27°C° 0 mm 2 mps 756 mmHg 90%
    05:00 +26°C° 0 mm 2 mps 756 mmHg 91%
    06:00 +26°C° 0 mm 2 mps 756 mmHg 92%
    07:00 +28°C° 0 mm 3 mps 757 mmHg 83%
    08:00 +30°C° 0 mm 3 mps 757 mmHg 75%
    09:00 +33°C° 0 mm 4 mps 758 mmHg 66%
    10:00 +34°C° 0.3 mm 4 mps 757 mmHg 62%
    11:00 +35°C° 0.3 mm 4 mps 757 mmHg 57%
    12:00 +36°C° 0.3 mm 5 mps 757 mmHg 53%
    13:00 +36°C° 0.3 mm 4 mps 756 mmHg 52%
    14:00 +36°C° 0.3 mm 4 mps 755 mmHg 51%
    15:00 +36°C° 0.3 mm 4 mps 754 mmHg 51%
    16:00 +35°C° 0.3 mm 4 mps 754 mmHg 56%
    17:00 +34°C° 0.3 mm 4 mps 754 mmHg 61%
    18:00 +32°C° 0.3 mm 4 mps 755 mmHg 66%
    19:00 +30°C° 0.2 mm 3 mps 755 mmHg 71%
    20:00 +29°C° 0.2 mm 3 mps 756 mmHg 76%
    21:00 +28°C° 0.2 mm 3 mps 757 mmHg 81%
    22:00 +28°C° 0.8 mm 3 mps 757 mmHg 84%
    23:00 +27°C° 0.8 mm 3 mps 757 mmHg 88%

    24 November, Saturday

    Time Temperature Precipitation Wind Pressure Humidity
    00:00 +27°C° 0.8 mm 2 mps 757 mmHg 91%
    01:00 +26°C° 0.3 mm 2 mps 756 mmHg 92%
    02:00 +26°C° 0.3 mm 2 mps 756 mmHg 93%
    03:00 +26°C° 0.3 mm 2 mps 755 mmHg 94%
    04:00 +26°C° 0 mm 2 mps 756 mmHg 95%
    05:00 +26°C° 0 mm 2 mps 756 mmHg 95%
    06:00 +26°C° 0 mm 2 mps 756 mmHg 96%
    07:00 +27°C° 0.3 mm 2 mps 757 mmHg 90%
    08:00 +29°C° 0.3 mm 3 mps 757 mmHg 83%
    09:00 +30°C° 0.3 mm 3 mps 758 mmHg 77%
    10:00 +30°C° 0.7 mm 3 mps 758 mmHg 75%
    11:00 +31°C° 0.7 mm 3 mps 758 mmHg 74%
    12:00 +31°C° 0.7 mm 3 mps 757 mmHg 72%
    13:00 +32°C° 0.8 mm 4 mps 756 mmHg 70%
    14:00 +33°C° 0.8 mm 4 mps 756 mmHg 69%
    15:00 +33°C° 0.8 mm 4 mps 755 mmHg 67%
    16:00 +32°C° 0.2 mm 4 mps 755 mmHg 71%
    17:00 +30°C° 0.2 mm 3 mps 755 mmHg 76%
    18:00 +29°C° 0.2 mm 3 mps 755 mmHg 81%
    19:00 +28°C° 0 mm 3 mps 756 mmHg 84%
    20:00 +28°C° 0 mm 3 mps 756 mmHg 87%
    21:00 +27°C° 0 mm 3 mps 757 mmHg 89%
    22:00 +27°C° 0.3 mm 2 mps 757 mmHg 91%
    23:00 +26°C° 0.3 mm 2 mps 757 mmHg 93%

    25 November, Sunday

    Time Temperature Precipitation Wind Pressure Humidity
    00:00 +26°C° 0.3 mm 2 mps 757 mmHg 95%
    01:00 +26°C° 0.1 mm 2 mps 757 mmHg 96%
    02:00 +26°C° 0.1 mm 2 mps 756 mmHg 97%
    03:00 +26°C° 0.1 mm 2 mps 756 mmHg 97%
    04:00 +26°C° 0.3 mm 2 mps 756 mmHg 97%
    05:00 +25°C° 0.3 mm 2 mps 756 mmHg 98%
    06:00 +25°C° 0.3 mm 2 mps 756 mmHg 98%
    07:00 +27°C° 0.4 mm 2 mps 757 mmHg 93%
    08:00 +28°C° 0.4 mm 2 mps 758 mmHg 88%
    09:00 +29°C° 0.4 mm 2 mps 758 mmHg 83%
    10:00 +30°C° 0.7 mm 2 mps 758 mmHg 80%
    11:00 +30°C° 0.7 mm 2 mps 757 mmHg 77%
    12:00 +31°C° 0.7 mm 2 mps 757 mmHg 74%
    13:00 +31°C° 1 mm 3 mps 756 mmHg 76%
    14:00 +31°C° 1 mm 3 mps 755 mmHg 77%
    15:00 +31°C° 1 mm 3 mps 755 mmHg 79%
    16:00 +30°C° 0.7 mm 3 mps 755 mmHg 83%
    17:00 +29°C° 0.7 mm 3 mps 755 mmHg 87%
    18:00 +28°C° 0.7 mm 3 mps 755 mmHg 91%
    19:00 +27°C° 0.2 mm 3 mps 756 mmHg 92%
    20:00 +27°C° 0.2 mm 2 mps 756 mmHg 93%
    21:00 +27°C° 0.2 mm 2 mps 757 mmHg 95%
    22:00 +27°C° 0.3 mm 2 mps 757 mmHg 95%
    23:00 +26°C° 0.3 mm 2 mps 757 mmHg 96%

    26 November, Monday

    Time Temperature Precipitation Wind Pressure Humidity
    00:00 +26°C° 0.3 mm 2 mps 757 mmHg 96%
    01:00 +26°C° 0.7 mm 2 mps 756 mmHg 97%
    02:00 +26°C° 0.7 mm 1 mps 756 mmHg 97%
    03:00 +26°C° 0.7 mm 1 mps 755 mmHg 97%
    04:00 +26°C° 1.1 mm 1 mps 756 mmHg 97%
    05:00 +26°C° 1.1 mm 1 mps 756 mmHg 97%
    06:00 +26°C° 1.1 mm 1 mps 756 mmHg 97%
    07:00 +27°C° 1.1 mm 1 mps 757 mmHg 93%
    08:00 +28°C° 1.1 mm 1 mps 757 mmHg 88%
    09:00 +29°C° 1.1 mm 2 mps 758 mmHg 84%
    10:00 +30°C° 1.9 mm 2 mps 757 mmHg 82%
    11:00 +30°C° 1.9 mm 2 mps 757 mmHg 81%
    12:00 +31°C° 1.9 mm 3 mps 756 mmHg 79%
    13:00 +31°C° 0.8 mm 3 mps 756 mmHg 78%
    14:00 +31°C° 0.8 mm 3 mps 755 mmHg 76%
    15:00 +31°C° 0.8 mm 3 mps 754 mmHg 75%
    16:00 +30°C° 0.2 mm 3 mps 754 mmHg 79%
    17:00 +29°C° 0.2 mm 3 mps 754 mmHg 82%
    18:00 +28°C° 0.2 mm 3 mps 754 mmHg 86%
    19:00 +28°C° 0 mm 3 mps 755 mmHg 88%
    20:00 +27°C° 0 mm 3 mps 755 mmHg 90%
    21:00 +27°C° 0 mm 2 mps 756 mmHg 92%
    22:00 +27°C° 0.1 mm 2 mps 756 mmHg 93%
    23:00 +27°C° 0.1 mm 2 mps 756 mmHg 94%
    Show more